Home > Weather > Norway > Haugesund > Past weeks

Flag for Norway Weather past 2 weeks in Haugesund, Norway

48 °F

Partly cloudy.

Feels Like: 42 °F
Forecast: 43 / 45 °F
Wind: 18 mph from South

Location: Haugesund / Karmoy

Current Time: Dec 2, 2015 at 9:02:35 AM

Latest Report: Dec 2, 2015 at 7:50 AM

Visibility: 6 mi

Pressure: 29.68 "Hg

Humidity: 94%

Dew point: 46 °F

Location of HaugesundLocation

Historic Weather in Haugesund — Graph


Haugesund temperature yesterday

Maximum temperature yesterday: 45 °F (at 2:50 AM)
Minimum temperature yesterday: 36 °F (at 4:50 PM)
Average temperature yesterday: 41 °F

Past Weeks' High & Low Weather Summary

High52 °F (Nov 27, 12:20 PM)100% (Nov 18, 5:20 PM)30.01 "Hg (Nov 18, 5:20 PM)
Low21 °F (Nov 22, 5:20 AM)56% (Nov 22, 2:20 PM)28.88 "Hg (Nov 29, 4:50 PM)
Average41 °F83%29.47 "Hg
* Reported Nov 17 7:20 AM — Dec 2 7:20 AM, Haugesund, Weather by CustomWeather, © 2015

Note: Actual official high and low records may vary slightly from our data, if they occured in-between our weather recording intervals... More about our weather records


Haugesund weather history for previous 24 hours

Time TempWeatherWind HumidityBarometerVisibility
7:20 AM
Wed, Dec 2
46 °FPartly cloudy.20 mph100%29.68 "Hg4 mi
6:50 AM46 °FDrizzle. Fog.21 mph93%29.71 "Hg3 mi
6:20 AM45 °FPartly cloudy.24 mph93%29.71 "Hg2 mi
5:50 AM45 °FDrizzle. Fog.24 mph93%29.71 "Hg2 mi
4:20 AM41 °FLight rain. Overcast.24 mph100%29.74 "Hg2 mi
3:50 AM41 °FRain. Mostly cloudy.20 mph93%29.74 "Hg4 mi
3:20 AM41 °FLight rain. Mostly cloudy.20 mph93%29.74 "Hg6 mi
2:20 AM41 °FLight rain. Mostly cloudy.23 mph87%29.77 "HgN/A
1:50 AM39 °FLight rain. Mostly cloudy.21 mph93%29.77 "HgN/A
1:20 AM41 °FLight rain. Passing clouds.23 mph87%29.80 "HgN/A
12:50 AM41 °FLight rain. Mostly cloudy.17 mph87%29.83 "HgN/A
12:20 AM41 °FLight rain. Mostly cloudy.17 mph87%29.83 "HgN/A
11:50 PM
Tue, Dec 1
41 °FLight rain. Mostly cloudy.15 mph87%29.86 "HgN/A
11:20 PM41 °FPassing clouds.16 mph81%29.86 "HgN/A
10:50 PM41 °FPartly cloudy.18 mph81%29.86 "HgN/A
10:20 PM41 °FPassing clouds.16 mph87%29.86 "HgN/A
9:50 PM41 °FPartly cloudy.16 mph87%29.89 "HgN/A
9:20 PM39 °FPassing clouds.14 mph93%29.89 "HgN/A
8:50 PM39 °FClear.15 mph93%29.89 "Hg10 mi
8:20 PM39 °FClear.15 mph93%29.92 "Hg10 mi
7:50 PM39 °FClear.14 mph93%29.92 "Hg10 mi
7:20 PM39 °FClear.12 mph93%29.92 "Hg10 mi
6:50 PM39 °FPassing clouds.12 mph93%29.92 "HgN/A
6:20 PM39 °FPassing clouds.12 mph93%29.92 "HgN/A
5:50 PM39 °FPassing clouds.10 mph87%29.92 "HgN/A
5:20 PM37 °FPassing clouds.9 mph87%29.92 "HgN/A
4:50 PM36 °FPassing clouds.8 mph87%29.92 "HgN/A
4:20 PM37 °FPassing clouds.7 mph93%29.92 "HgN/A
3:50 PM39 °FPassing clouds.7 mph81%29.92 "HgN/A
3:20 PM39 °FPartly sunny.5 mph87%29.92 "HgN/A
2:50 PM39 °FScattered clouds.3 mph87%29.92 "HgN/A
2:20 PM39 °FScattered clouds.3 mph81%29.92 "HgN/A
1:50 PM41 °FScattered showers. Scattered clouds.12 mph81%29.92 "HgN/A
1:20 PM43 °FScattered showers. Partly sunny.14 mph71%29.92 "HgN/A
12:50 PM45 °FScattered clouds.12 mph66%29.89 "HgN/A
12:20 PM43 °FBroken clouds.7 mph71%29.89 "HgN/A
11:50 AM43 °FPartly sunny.7 mph66%29.89 "HgN/A
11:20 AM43 °FScattered showers. Partly sunny.6 mph71%29.86 "HgN/A
10:50 AM41 °FBroken clouds.8 mph76%29.86 "HgN/A
10:20 AM43 °FScattered showers. Broken clouds.17 mph71%29.86 "HgN/A
9:50 AM43 °FBroken clouds.20 mph71%29.83 "HgN/A
Weather by CustomWeather, © 2015

See weather overviewHow to use our weather pages